Regional Weather Roundup
Issued by NWS Little Rock, AR

Home | Current Version | Previous Version | Graphics & Text | Print | Product List | Glossary On
Versions: 1 2 3 4 5 6 7 8 9 10 11 12 13 14 15 16 17 18 19 20 21 22 23 24 25 26 27 28 29 30 31 32 33 34 35 36 37 38 39 40 41 42 43 44 45 46 47 48 49 50
086
ASUS44 KLZK 072105
RWRLZK

WEATHER ROUNDUP FOR ARKANSAS
NATIONAL WEATHER SERVICE LITTLE ROCK AR
300 PM CST WED DEC 07 2016

NOTE: "FAIR" INDICATES FEW OR NO CLOUDS BELOW 12,000 FEET WITH NO
SIGNIFICANT WEATHER AND/OR OBSTRUCTIONS TO VISIBILITY.

ARZ001-003-010-029-072200-
NORTHWEST ARKANSAS

CITY           SKY/WX    TMP DP  RH WIND       PRES   REMARKS
FAYETTEVILLE   CLOUDY    32  25  75 NE8       30.19R WCI  25
FORT SMITH     CLOUDY    39  28  64 E10       30.20R
HARRISON       CLOUDY    35  20  54 N6        30.19R WCI  30
BENTONVILLE    CLOUDY    36  18  48 NE9       30.20R
ROGERS         CLOUDY    34  18  52 NE15      30.20R WCI  24
SILOAM SPGS    CLOUDY    32  25  74 E5        30.20R WCI  27
HIGHFILL       CLOUDY    34  23  64 NE10      30.19R WCI  26
SPRINGDALE     CLOUDY    30  27  86 E10       30.21R FOG     WCI  21
$$

ARZ004-005-016-072200-
NORTH CENTRAL ARKANSAS

CITY           SKY/WX    TMP DP  RH WIND       PRES   REMARKS
BATESVILLE     CLOUDY    41  23  48 NE3       30.20R
FLIPPIN        CLOUDY    37  16  41 N5        30.18R
MTN HOME       CLOUDY    36  20  52 NE5       30.19R
$$

ARZ040-041-072200-
WEST CENTRAL ARKANSAS

CITY           SKY/WX    TMP DP  RH WIND       PRES   REMARKS
MENA           CLOUDY    41  41 100 NE6       30.13R
MOUNT IDA      CLOUDY    40  37  89 VRB3      30.12R FOG
$$

ARZ009-017-025-026-028-072200-
NORTHEAST ARKANSAS

CITY           SKY/WX    TMP DP  RH WIND       PRES   REMARKS
CORNING        CLOUDY    41  23  48 NE7       30.21R
JONESBORO      CLOUDY    42  29  59 NE9       30.19R
NEWPORT        CLOUDY    41  30  65 NE9       30.20R
WALNUT RIDGE   CLOUDY    41  23  48 N7        30.20R
BLYTHEVILLE    MOSUNNY   47  31  53 N8        30.19S
NW BLYTHEVILLE PTSUNNY   45  30  57 N3        30.18
$$

ARZ022-023-033-042-044-072200-
CENTRAL ARKANSAS

CITY           SKY/WX    TMP DP  RH WIND       PRES   REMARKS
LITTLE ROCK    CLOUDY    41  33  73 NE6       30.18S
N LITTLE ROCK    N/A     40  32  72 E6        30.20S
JACKSONVILLE   PTSUNNY   42  32  68 NE6       30.18R
SEARCY         CLOUDY    42  31  64 NE7       30.21R
HOT SPRINGS    CLOUDY    41  36  82 E8        30.16R
RUSSELLVILLE   CLOUDY    39  27  62 NE6       30.19R
CLINTON        CLOUDY    39  23  52 VRB3      30.20R
$$

ARZ036-072200-
EAST ARKANSAS

CITY           SKY/WX    TMP DP  RH WIND       PRES   REMARKS
WEST MEMPHIS   CLOUDY    45  33  63 NE6       30.17R
$$

ARZ050-053-066-070-073-072200-
SOUTHWEST ARKANSAS

CITY           SKY/WX    TMP DP  RH WIND       PRES   REMARKS
ARKADELPHIA    CLOUDY    42  38  85 NE8       30.17R
CAMDEN         CLOUDY    46  39  76 NE6       30.15R
TEXARKANA      CLOUDY    47  42  83 NE6       30.12R
EL DORADO      CLOUDY    49  44  83 NE6       30.12R
DE QUEEN       CLOUDY    45  40  82 E7        30.12R
$$

ARZ056-057-069-072200-
SOUTHEAST ARKANSAS

CITY           SKY/WX    TMP DP  RH WIND       PRES   REMARKS
PINE BLUFF     CLOUDY    44  38  79 NE8       30.16S
STUTTGART      CLOUDY    45  34  65 N8        30.18R
MONTICELLO     CLOUDY    48  40  73 NE7       30.14S

$$






USA.gov is the U.S. government's official web portal to all federal, state and local government web resources and services.